[[{"header":{"parameterUnit":"m.s-1","parameterCategory":1,"la1":30.2991,"la2":30.254,"lo1":-89.0895,"lo2":-89.0444,"dy":0.0017,"dx":0.0017,"nx":28,"ny":28,"refTime":"2025-08-24T03:00:00:Z","depth":0,"parameterNumber":2,"parameterNumberName":"U-component_of_WINDS"},"data":[0,0,0,0,0,0,0,0,0,0,0,0,0,0,0,0,0,0,0,0,0,0,0,0,0,0,0,0,0,0,0,0,0,0,0,0,0,0,0,0,0,0,0,0,0,0,0,0,0,0,0,0,0,0,0,0,0,0,1.103,1.1031,0,1.1103,1.1103,1.1104,1.1112,1.1111,1.1111,1.111,1.1184,1.1187,1.1189,0,0,0,0,0,0,0,0,0,0,0,0,0,1.0897,1.0899,1.103,1.1031,1.1032,1.1102,1.1103,1.1104,1.1112,1.1111,1.1111,1.111,1.1183,1.1186,1.1189,0,0,0,0,0,0,0,0,0,0,0,0,0,1.096,1.09,1.103,1.1044,1.1046,1.1102,1.1103,1.1105,1.1113,1.1111,1.111,1.1109,1.1182,1.1186,1.119,1.1236,0,0,1.1202,1.1204,0,0,0,0,0,0,0,0,1.0957,1.0965,1.1041,1.1043,1.1046,1.1097,1.1083,1.1149,1.1113,1.1087,1.111,1.1109,1.1156,1.1162,1.1178,1.124,1.1243,1.1202,1.1205,1.1206,1.1208,0,0,0,0,0,0,0,1.0952,1.0962,1.1059,1.1042,1.1045,1.1047,1.1054,1.1096,1.1127,1.1089,1.109,1.1099,1.1157,1.1174,1.118,1.1244,1.1202,1.1206,1.1208,1.121,1.1346,1.1347,0,0,0,0,0,0,1.0945,1.0958,1.1056,1.1061,1.0998,1.105,1.1059,1.1082,1.1126,1.1132,1.11,1.1099,1.1168,1.1175,1.1182,1.1239,1.1206,1.121,1.1212,1.1344,1.1346,1.1347,0,0,0,0,0,0,1.0942,1.0954,1.1053,1.101,1.1023,1.1053,1.1079,1.1084,1.1101,1.1134,1.114,1.1112,1.1167,1.1177,1.1222,1.1241,1.1212,1.1216,1.1343,1.1345,1.1347,1.1352,0,0,0,0,0,0,1.0939,1.0953,1.0971,1.101,1.1025,1.1093,1.108,1.1086,1.1108,1.1108,1.1147,1.1152,1.1167,1.1216,1.1226,1.1246,1.1219,1.1341,1.1344,1.1346,1.135,1.1354,1.1357,0,0,0,0,0,1.0934,1.097,1.0972,1.0984,1.1049,1.1094,1.1102,1.1119,1.1109,1.1128,1.1149,1.1151,1.1238,1.1221,1.1232,1.1254,1.134,1.1343,1.1346,1.1349,1.1353,1.1356,0,0,0,0,0,0,1.0933,1.0975,1.0978,1.1028,1.1057,1.1095,1.1119,1.1123,1.1155,1.1153,1.1173,1.1181,1.1226,1.1244,1.1225,1.13,1.1288,1.1293,1.1286,1.1291,1.1294,1.1288,1.1222,0,0,0,0,0,1.0938,1.0972,1.1007,1.1048,1.1062,1.1088,1.1108,1.1118,1.1149,1.1161,1.1186,1.1215,1.1249,1.1271,1.1304,1.1353,1.1361,1.1373,1.1376,1.1379,1.1383,1.1409,1.1414,1.1356,1.1356,1.1356,0,0,1.095,1.0978,1.0998,1.1048,1.1072,1.1105,1.1098,1.1134,1.1159,1.1167,1.1211,1.123,1.1264,1.1311,1.1333,1.1328,1.14,1.1382,1.1384,1.1387,1.1412,1.1417,1.1422,1.1358,1.1358,1.1358,0,0,1.0988,1.1013,1.1049,1.1073,1.1108,1.1125,1.1134,1.1171,1.1183,1.1228,1.1234,1.1264,1.1322,1.1346,1.1365,1.1411,1.1414,1.1422,1.1439,1.1464,1.1468,1.1472,1.1487,1.1493,1.1426,1.1426,1.1426,0,1.0999,1.105,1.1067,1.1103,1.1124,1.1133,1.1168,1.1191,1.1235,1.125,1.1243,1.1315,1.1339,1.1391,1.1402,1.1418,1.1428,1.1417,1.1466,1.147,1.1474,1.1489,1.1495,1.1426,1.1426,1.1426,1.1426,0,1.106,1.1095,1.112,1.1162,1.1186,1.1222,1.1244,1.1267,1.1274,1.1292,1.1336,1.1365,1.1403,1.1416,1.1425,1.1469,1.1465,1.1462,1.145,1.148,1.1494,1.15,1.1427,1.1427,1.1427,1.1427,0,0,1.11,1.1151,1.1159,1.1178,1.1218,1.1245,1.128,1.1318,1.1336,1.1367,1.1396,1.1445,1.1442,1.1464,1.1475,1.1497,1.153,1.1492,1.1493,1.1497,1.158,1.1581,1.1587,1.1533,1.1534,1.1535,1.1577,0,1.1142,1.1205,1.1221,1.1275,1.1307,1.1315,1.1346,1.1373,1.139,1.1419,1.1438,1.1471,1.1466,1.1479,1.1501,1.1522,1.1547,1.1519,1.156,1.1561,1.155,1.1595,1.1597,1.1635,1.1582,1.1583,1.1584,0,1.12,1.1231,1.1288,1.1322,1.1336,1.1363,1.1398,1.1426,1.1457,1.1467,1.1492,1.15,1.1537,1.1523,1.1573,1.1554,1.1571,1.1584,1.1585,1.1589,1.1574,1.1599,1.1648,1.1653,1.1593,1.1592,1.1592,0,1.1222,1.1278,1.1319,1.1335,1.1376,1.1395,1.1413,1.1442,1.1463,1.1494,1.1507,1.1542,1.156,1.1586,1.1604,1.1593,1.1652,1.164,1.1661,1.166,1.1673,1.1671,1.1724,1.1685,1.1685,1.1685,1.1685,0,1.1267,1.1301,1.1329,1.1354,1.1392,1.141,1.1447,1.1466,1.1492,1.152,1.1529,1.1555,1.1577,1.1606,1.162,1.1658,1.1667,1.1676,1.1679,1.1675,1.1673,1.1686,1.1684,1.1687,1.1686,1.1686,1.1686,0,1.1297,1.1318,1.1363,1.1398,1.1407,1.1434,1.1464,1.1488,1.1505,1.154,1.155,1.1576,1.161,1.163,1.1674,1.1683,1.1726,1.1728,1.1715,1.1717,1.1736,1.1733,1.1797,1.1806,1.1762,1.1763,1.1763,0,1.1324,1.1351,1.1388,1.1408,1.1426,1.1458,1.1479,1.1497,1.1519,1.1555,1.1575,1.161,1.1639,1.1693,1.1716,1.1749,1.1752,1.1772,1.1757,1.1751,1.1751,1.1749,1.1751,1.1774,1.1775,1.1775,1.1775,0,1.137,1.1378,1.1408,1.1442,1.1467,1.1494,1.1522,1.1537,1.156,1.1583,1.1619,1.1641,1.1685,1.1719,1.1754,1.1772,1.1777,1.178,1.1786,1.1782,1.1773,1.1777,1.1721,1.1778,1.1778,1.1778,1.1777,1.1777,1.1399,1.1422,1.1452,1.1485,1.1507,1.1532,1.1556,1.1576,1.1605,1.1643,1.1651,1.1688,1.1717,1.1764,1.1783,1.1812,1.1808,1.1818,1.182,1.1822,1.1822,1.1769,1.1819,1.1819,1.1818,1.1818,1.1818,0,1.1444,1.1463,1.1493,1.1531,1.1556,1.1559,1.1589,1.161,1.1642,1.1669,1.1697,1.1736,1.177,1.1794,1.1828,1.1846,1.1849,1.1854,1.1853,1.1857,1.1824,1.1814,1.1851,1.1851,1.1851,1.1851,1.1851,1.1851,1.147,1.1509,1.1521,1.1571,1.159,1.1626,1.1642,1.1665,1.1686,1.173,1.1758,1.1774,1.1799,1.1835,1.1865,1.1871,1.1883,1.1888,1.1894,1.1863,1.1859,1.1856,1.1847,1.189,1.189,1.1925,1.1925,1.1925]},{"header":{"parameterUnit":"m.s-1","parameterCategory":1,"la1":30.2991,"la2":30.254,"lo1":-89.0895,"lo2":-89.0444,"dy":0.0017,"dx":0.0017,"nx":28,"ny":28,"refTime":"2025-08-24T03:00:00:Z","depth":0,"parameterNumber":3,"parameterNumberName":"V-component_of_WINDS"},"data":[0,0,0,0,0,0,0,0,0,0,0,0,0,0,0,0,0,0,0,0,0,0,0,0,0,0,0,0,0,0,0,0,0,0,0,0,0,0,0,0,0,0,0,0,0,0,0,0,0,0,0,0,0,0,0,0,0,0,3.3428,3.3428,0,3.3437,3.3437,3.3437,3.3386,3.3385,3.3383,3.3382,3.339,3.3391,3.3393,0,0,0,0,0,0,0,0,0,0,0,0,0,3.3366,3.3367,3.3428,3.3428,3.3428,3.3437,3.3437,3.3437,3.3386,3.3385,3.3383,3.3381,3.3389,3.3391,3.3393,0,0,0,0,0,0,0,0,0,0,0,0,0,3.3386,3.3368,3.3428,3.3404,3.3402,3.3437,3.3437,3.3437,3.3387,3.3385,3.3382,3.338,3.3389,3.3391,3.3393,3.3451,0,0,3.34,3.3401,0,0,0,0,0,0,0,0,3.3385,3.3388,3.3408,3.3406,3.3404,3.3408,3.3418,3.3442,3.3387,3.3393,3.3382,3.3379,3.3398,3.3399,3.3405,3.3451,3.3452,3.3401,3.3402,3.3403,3.3404,0,0,0,0,0,0,0,3.3383,3.3387,3.3432,3.3408,3.3406,3.3392,3.3393,3.3422,3.3407,3.3392,3.3388,3.339,3.3396,3.3403,3.3405,3.3452,3.3401,3.3403,3.3404,3.3405,3.3543,3.3545,0,0,0,0,0,0,3.3385,3.3387,3.3431,3.3432,3.3389,3.3395,3.3396,3.3409,3.3407,3.3404,3.3392,3.3388,3.34,3.3403,3.3405,3.3471,3.3403,3.3405,3.3407,3.3541,3.3544,3.3546,0,0,0,0,0,0,3.3384,3.339,3.3431,3.3408,3.3412,3.3399,3.3414,3.341,3.3417,3.3407,3.3404,3.3402,3.3399,3.3402,3.344,3.3471,3.3406,3.3408,3.3538,3.3542,3.3545,3.3604,0,0,0,0,0,0,3.3383,3.339,3.3412,3.3409,3.3414,3.3466,3.3416,3.3412,3.3422,3.3416,3.3415,3.3413,3.3397,3.3436,3.3442,3.3473,3.341,3.3535,3.354,3.3544,3.3599,3.3609,3.3617,0,0,0,0,0,3.3381,3.3429,3.3414,3.3419,3.3442,3.3468,3.347,3.3451,3.3424,3.3446,3.3439,3.3413,3.3467,3.3441,3.3446,3.3478,3.3533,3.3539,3.3544,3.3595,3.3607,3.3617,0,0,0,0,0,0,3.3436,3.3428,3.3411,3.346,3.3465,3.3459,3.3486,3.3465,3.3478,3.3472,3.3448,3.3448,3.3489,3.3488,3.3459,3.3533,3.3495,3.3502,3.3532,3.3544,3.3552,3.3551,3.3412,0,0,0,0,0,3.3454,3.3476,3.3468,3.3512,3.3515,3.35,3.3511,3.3496,3.35,3.3502,3.3497,3.3502,3.352,3.3532,3.3548,3.3599,3.3597,3.3624,3.3633,3.364,3.3646,3.3671,3.3682,3.3563,3.3563,3.3563,0,0,3.3491,3.3489,3.3505,3.3523,3.3525,3.3547,3.3502,3.3529,3.3545,3.3506,3.354,3.3537,3.3541,3.3585,3.3604,3.3585,3.3678,3.3647,3.3653,3.3654,3.3677,3.3688,3.3698,3.3566,3.3566,3.3565,0,0,3.3569,3.3572,3.3607,3.361,3.3613,3.3603,3.3612,3.3609,3.3605,3.364,3.361,3.3629,3.3661,3.3664,3.3669,3.3748,3.3724,3.3754,3.3801,3.3826,3.3835,3.3843,3.3869,3.3879,3.376,3.376,3.376,0,3.3615,3.3648,3.3628,3.3656,3.3663,3.3629,3.3664,3.3668,3.3676,3.3682,3.3661,3.3698,3.3698,3.3742,3.3761,3.3767,3.3775,3.3753,3.3835,3.3843,3.3851,3.3875,3.3885,3.3763,3.3763,3.3763,3.3762,0,3.3703,3.3727,3.3755,3.3763,3.3774,3.3806,3.3789,3.3803,3.3787,3.3778,3.3813,3.3812,3.3826,3.3835,3.382,3.3876,3.3864,3.384,3.3801,3.3866,3.3888,3.3898,3.3768,3.3767,3.3766,3.3765,0,0,3.3817,3.3813,3.3823,3.3826,3.3827,3.3844,3.3873,3.3887,3.3898,3.3905,3.3928,3.3955,3.3932,3.3938,3.3923,3.3945,3.4005,3.3917,3.3917,3.3932,3.4064,3.4081,3.4093,3.399,3.3991,3.3993,3.4063,0,3.3892,3.3941,3.3923,3.3973,3.3994,3.3961,3.3986,3.3989,3.3982,3.3998,3.399,3.4008,3.3977,3.3981,3.4001,3.3993,3.4031,3.3988,3.4009,3.401,3.4008,3.4105,3.4123,3.419,3.4072,3.4074,3.4075,0,3.3986,3.3996,3.4048,3.4044,3.4052,3.4075,3.4085,3.4101,3.4103,3.4096,3.4103,3.4083,3.411,3.4072,3.4109,3.408,3.4088,3.4085,3.4087,3.4087,3.4045,3.4106,3.4211,3.422,3.4089,3.4088,3.4087,0,3.4061,3.4088,3.4122,3.4125,3.4122,3.4138,3.4137,3.4138,3.4146,3.4155,3.416,3.4173,3.4179,3.4188,3.4171,3.4146,3.421,3.4171,3.4204,3.4204,3.4217,3.4216,3.4323,3.4225,3.4225,3.4225,3.4225,0,3.4146,3.4178,3.4155,3.4176,3.4211,3.419,3.4225,3.422,3.4221,3.4239,3.4212,3.423,3.4208,3.4224,3.4211,3.4242,3.4245,3.424,3.4235,3.4241,3.4241,3.4244,3.4239,3.4228,3.4227,3.4227,3.4226,0,3.4235,3.4221,3.4255,3.4249,3.4248,3.4274,3.4268,3.4286,3.4277,3.4301,3.4305,3.4291,3.4308,3.4292,3.4309,3.43,3.4341,3.4331,3.434,3.4337,3.4369,3.4365,3.448,3.4494,3.4389,3.439,3.4391,0,3.4289,3.4313,3.4309,3.4319,3.432,3.4337,3.4346,3.4325,3.4335,3.4338,3.4356,3.4371,3.4381,3.441,3.4401,3.4413,3.4402,3.4441,3.4403,3.4408,3.44,3.4398,3.4399,3.4448,3.445,3.4451,3.4452,0,3.4386,3.4377,3.439,3.4401,3.4411,3.4419,3.4424,3.4434,3.4413,3.4425,3.4442,3.445,3.4466,3.4481,3.449,3.4488,3.4466,3.4464,3.4471,3.4476,3.448,3.4476,3.4359,3.4461,3.446,3.4459,3.4459,3.4458,3.4457,3.4476,3.4476,3.4491,3.4492,3.4498,3.4514,3.4507,3.452,3.4531,3.4519,3.4539,3.4539,3.4549,3.455,3.4565,3.4548,3.456,3.4563,3.4565,3.4569,3.4479,3.4567,3.4567,3.4566,3.4566,3.4566,0,3.4551,3.4548,3.4563,3.457,3.4582,3.456,3.4564,3.4575,3.4593,3.4595,3.4606,3.4624,3.4638,3.463,3.4641,3.4654,3.4644,3.4658,3.4656,3.4655,3.4584,3.4576,3.4666,3.4666,3.4666,3.4666,3.4666,3.4666,3.4601,3.4631,3.4622,3.4653,3.465,3.4669,3.4673,3.4677,3.4679,3.47,3.4711,3.4706,3.4703,3.4714,3.4725,3.4722,3.4727,3.4744,3.4737,3.4671,3.4661,3.4651,3.4643,3.4746,3.4746,3.4807,3.4807,3.4808]}]]